Weather History for Hays, KS

Change the Weather History Date:

Sunday, March 10, 2013

  Actual Average Record
Temperature  
Mean Temperature 29 °F -  
Max Temperature 35 °F 47 °F 78 °F (2014)
Min Temperature 23 °F 24 °F 1 °F (1998)
Degree Days  
Heating Degree Days 36    
Moisture  
Dew Point 21 °F    
Average Humidity 73    
Maximum Humidity 93    
Minimum Humidity 55    
Precipitation  
Precipitation 0.03 in - - ()
Sea Level Pressure  
Sea Level Pressure 29.92 in    
Wind  
Wind Speed 27 mph (NNW)    
Max Wind Speed 34 mph    
Max Gust Speed 48 mph    
Visibility 6 miles    
Events      
Averages and records for this station are not official NWS values.
T = Trace of Precipitation, MM = Missing Value Source: NWS Daily Summary

Daily Weather History Graph

Daily Weather History Graph

Search for Another Location

Airport:

Trip Planner

Search our weather history database for the weather conditions in past years. The results will help you decide how hot, cold, wet, or windy it might be!

Date:

Astronomy

Mar. 10, 2013 Rise Set
Actual Time 7:55 AM CDT 7:39 PM CDT
Civil Twilight 7:29 AM CDT 8:06 PM CDT
Nautical Twilight 6:58 AM CDT 8:36 PM CDT
Astronomical Twilight 6:27 AM CDT 9:08 PM CDT
Moon 6:56 AM CDT (3/10) 6:49 PM CDT (3/10)
Length of Visible Light 12h 36m
Length of Day
11h 43m
Waning Crescent, 2% of the Moon is Illuminated
Mar 10
Waning Crescent
Mar 11
New
Mar 19
First Quarter
Mar 27
Full
Apr 2
Last Quarter

Hourly Weather History & Observations

Time (CDT) Temp. Windchill Dew Point Humidity Pressure Visibility Wind Dir Wind Speed Gust Speed Precip Events Conditions
12:15 AM 32.0 °F 17.0 °F 26.6 °F 80% 29.71 in 4.0 mi North 33.4 mph 39.1 mph N/A   Overcast
12:35 AM 32.0 °F 18.9 °F 26.6 °F 80% 29.72 in 2.5 mi North 24.2 mph 32.2 mph N/A   Overcast
12:55 AM 30.2 °F 15.9 °F 26.6 °F 86% 29.73 in 1.2 mi North 26.5 mph 35.7 mph N/A   Overcast
1:15 AM 30.2 °F 15.7 °F 28.4 °F 93% 29.74 in 1.2 mi North 27.6 mph 33.4 mph N/A   Overcast
1:35 AM 30.2 °F 15.2 °F 28.4 °F 93% 29.75 in 0.8 mi North 29.9 mph 35.7 mph N/A   Overcast
1:55 AM 30.2 °F 16.2 °F 28.4 °F 93% 29.76 in 1.2 mi North 25.3 mph 32.2 mph N/A   Overcast
3:15 AM 30.2 °F 15.7 °F 28.4 °F 93% 29.77 in 0.8 mi North 27.6 mph 34.5 mph N/A   Overcast
3:35 AM 30.2 °F 16.8 °F 28.4 °F 93% 29.78 in 1.0 mi North 23.0 mph 28.8 mph N/A   Overcast
3:55 AM 30.2 °F 17.1 °F 28.4 °F 93% 29.79 in 1.0 mi NNW 21.9 mph 27.6 mph N/A   Overcast
4:15 AM 30.2 °F 17.1 °F 28.4 °F 93% 29.79 in 0.5 mi NNW 21.9 mph 31.1 mph N/A   Overcast
4:35 AM 30.2 °F 16.5 °F 28.4 °F 93% 29.79 in 0.8 mi NNW 24.2 mph 32.2 mph N/A   Overcast
4:55 AM 30.2 °F 16.5 °F 28.4 °F 93% 29.80 in 1.8 mi NNW 24.2 mph 29.9 mph N/A   Overcast
5:15 AM 30.2 °F 15.9 °F 28.4 °F 93% 29.81 in 1.5 mi NNW 26.5 mph 31.1 mph N/A   Overcast
5:35 AM 30.2 °F 16.8 °F 28.4 °F 93% 29.82 in 1.5 mi NNW 23.0 mph 33.4 mph N/A   Overcast
5:55 AM 30.2 °F 15.7 °F 28.4 °F 93% 29.82 in 1.8 mi North 27.6 mph 34.5 mph N/A   Overcast
6:15 AM 30.2 °F 14.7 °F 26.6 °F 86% 29.83 in 0.8 mi NNW 32.2 mph 48.3 mph N/A   Overcast
7:35 AM 26.6 °F 10.3 °F 24.8 °F 93% 29.88 in 0.8 mi NNW 29.9 mph 39.1 mph N/A   Overcast
7:55 AM 28.4 °F 12.7 °F 21.2 °F 74% 29.89 in 1.2 mi NNW 29.9 mph - N/A   Overcast
8:15 AM 28.4 °F 12.5 °F 21.2 °F 74% 29.90 in 1.0 mi NNW 31.1 mph 41.4 mph N/A   Overcast
8:35 AM 26.6 °F 10.3 °F 21.2 °F 80% 29.90 in 0.5 mi NNW 29.9 mph 42.6 mph N/A   Overcast
8:55 AM 28.4 °F 12.3 °F 21.2 °F 74% 29.90 in 0.5 mi NNW 32.2 mph 39.1 mph N/A   Overcast
9:15 AM 28.4 °F 12.7 °F 21.2 °F 74% 29.91 in 0.5 mi NNW 29.9 mph 40.3 mph N/A   Overcast
9:35 AM 26.6 °F 10.3 °F 19.4 °F 74% 29.92 in 0.5 mi NNW 29.9 mph 38.0 mph N/A   Overcast
9:55 AM 26.6 °F 10.8 °F 19.4 °F 74% 29.93 in 1.0 mi NNW 27.6 mph 35.7 mph N/A   Overcast
10:15 AM 26.6 °F 9.6 °F 21.2 °F 80% 29.92 in 1.0 mi NNW 33.4 mph 39.1 mph N/A   Overcast
10:35 AM 28.4 °F 12.3 °F 19.4 °F 69% 29.92 in 0.5 mi NNW 32.2 mph 38.0 mph N/A   Overcast
10:55 AM 26.6 °F 10.3 °F 19.4 °F 74% 29.93 in 0.5 mi NNW 29.9 mph 40.3 mph N/A   Overcast
11:15 AM 28.4 °F 13.5 °F 19.4 °F 69% 29.94 in 0.8 mi NNW 26.5 mph 38.0 mph N/A   Overcast
11:35 AM 28.4 °F 12.3 °F 19.4 °F 69% 29.95 in 1.0 mi NNW 32.2 mph 39.1 mph N/A   Overcast
11:55 AM 28.4 °F 13.8 °F 19.4 °F 69% 29.95 in 7.0 mi NNW 25.3 mph 35.7 mph N/A   Scattered Clouds
12:15 PM 28.4 °F 11.8 °F 19.4 °F 69% 29.97 in 9.0 mi NNW 34.5 mph 38.0 mph N/A   Mostly Cloudy
12:35 PM 30.2 °F 14.5 °F 19.4 °F 64% 29.97 in 10.0 mi NNW 33.4 mph 40.3 mph N/A   Overcast
12:55 PM 30.2 °F 14.7 °F 21.2 °F 69% 29.97 in 10.0 mi NNW 32.2 mph 38.0 mph N/A   Overcast
1:15 PM 30.2 °F 14.5 °F 21.2 °F 69% 29.98 in 10.0 mi NNW 33.4 mph 38.0 mph N/A   Overcast
1:35 PM 30.2 °F 15.7 °F 19.4 °F 64% 29.98 in 10.0 mi NNW 27.6 mph 36.8 mph N/A   Overcast
1:55 PM 30.2 °F 15.7 °F 21.2 °F 69% 29.97 in 10.0 mi NNW 27.6 mph 38.0 mph N/A   Overcast
2:15 PM 30.2 °F 15.4 °F 21.2 °F 69% 29.97 in 10.0 mi NNW 28.8 mph 36.8 mph 0.01 in   Overcast
2:35 PM 32.0 °F 17.2 °F 21.2 °F 64% 29.96 in 10.0 mi NNW 32.2 mph 36.8 mph 0.03 in   Overcast
2:55 PM 30.2 °F 14.5 °F 21.2 °F 69% 29.96 in 10.0 mi NNW 33.4 mph 39.1 mph 0.03 in   Overcast
3:15 PM 33.8 °F 21.0 °F 23.0 °F 65% 29.95 in 10.0 mi NNW 25.3 mph 36.8 mph N/A   Overcast
3:35 PM 33.8 °F 19.9 °F 21.2 °F 60% 29.95 in 10.0 mi NNW 31.1 mph 36.8 mph N/A   Overcast
3:55 PM 33.8 °F 19.9 °F 23.0 °F 65% 29.96 in 10.0 mi NNW 31.1 mph 35.7 mph N/A   Scattered Clouds
4:15 PM 33.8 °F 20.8 °F 23.0 °F 65% 29.96 in 10.0 mi NNW 26.5 mph - N/A   Scattered Clouds
4:35 PM 33.8 °F 20.3 °F 21.2 °F 60% 29.96 in 10.0 mi North 28.8 mph 36.8 mph N/A   Partly Cloudy
4:55 PM 35.6 °F 22.7 °F 21.2 °F 56% 29.97 in 10.0 mi NNW 28.8 mph 32.2 mph N/A   Clear
5:15 PM 35.6 °F 22.5 °F 21.2 °F 56% 29.97 in 10.0 mi North 29.9 mph 35.7 mph N/A   Scattered Clouds
5:35 PM 35.6 °F 23.2 °F 21.2 °F 56% 29.97 in 10.0 mi NNW 26.5 mph 35.7 mph N/A   Mostly Cloudy
5:55 PM 33.8 °F 20.5 °F 19.4 °F 56% 29.96 in 10.0 mi NNW 27.6 mph 32.2 mph N/A   Partly Cloudy
6:15 PM 33.8 °F 20.8 °F 19.4 °F 56% 29.96 in 10.0 mi North 26.5 mph 33.4 mph N/A   Clear
6:35 PM 33.8 °F 20.8 °F 19.4 °F 56% 29.97 in 10.0 mi NNW 26.5 mph 33.4 mph N/A   Clear
6:55 PM 33.8 °F 21.3 °F 19.4 °F 56% 29.98 in 10.0 mi North 24.2 mph - N/A   Clear
7:15 PM 32.0 °F 19.2 °F 17.6 °F 55% 29.98 in 10.0 mi North 23.0 mph 27.6 mph N/A   Clear
7:35 PM 30.2 °F 19.3 °F 17.6 °F 60% 29.99 in 10.0 mi North 15.0 mph - N/A   Clear
7:55 PM 30.2 °F 18.1 °F 17.6 °F 60% 30.00 in 10.0 mi NNW 18.4 mph 23.0 mph N/A   Clear
8:15 PM 28.4 °F 15.1 °F 17.6 °F 64% 30.01 in 10.0 mi North 20.7 mph 24.2 mph N/A   Clear
8:35 PM 28.4 °F 17.0 °F 17.6 °F 64% 30.02 in 10.0 mi NNW 15.0 mph - N/A   Clear
9:15 PM 28.4 °F 19.1 °F 17.6 °F 64% 30.03 in 10.0 mi NNW 10.4 mph - N/A   Clear
9:35 PM 26.6 °F 15.2 °F 17.6 °F 69% 30.03 in 10.0 mi NNW 13.8 mph - N/A   Clear
9:55 PM 26.6 °F 13.1 °F 17.6 °F 69% 30.02 in 10.0 mi NNW 19.6 mph 25.3 mph N/A   Clear
10:15 PM 26.6 °F 14.3 °F 17.6 °F 69% 30.03 in 10.0 mi NNW 16.1 mph - N/A   Clear
10:35 PM 26.6 °F 15.7 °F 15.8 °F 64% 30.03 in 10.0 mi NNW 12.7 mph - N/A   Clear
10:55 PM 26.6 °F 14.7 °F 15.8 °F 64% 30.03 in 10.0 mi NNW 15.0 mph 20.7 mph N/A   Clear
11:15 PM 24.8 °F 11.5 °F 15.8 °F 69% 30.04 in 10.0 mi NW 17.3 mph - N/A   Clear
11:35 PM 24.8 °F 12.4 °F 15.8 °F 69% 30.04 in 10.0 mi NW 15.0 mph - N/A   Clear
12:15 AM 24.8 °F 13.4 °F 15.8 °F 69% 30.02 in 10.0 mi NW 12.7 mph - N/A   Clear
12:35 AM 23.0 °F 11.7 °F 15.8 °F 74% 30.02 in 10.0 mi NW 11.5 mph - N/A   Clear
12:55 AM 23.0 °F 11.1 °F 14.0 °F 68% 30.01 in 10.0 mi NNW 12.7 mph - N/A   Clear